Regional Weather Roundup
Issued by NWS Jackson, KY

Home | Current Version | Previous Version | Text Only | Print | Product List | Glossary Off
Versions: 1 2 3 4 5 6 7 8 9 10 11 12 13 14 15 16 17 18 19 20 21 22 23 24 25 26 27 28 29 30 31 32 33 34 35 36 37 38 39 40 41 42 43 44 45 46 47 48 49 50

000
ASUS43 KJKL 300510
RWRJKL

EAST KENTUCKY HOURLY WEATHER ROUNDUP
NATIONAL WEATHER SERVICE JACKSON KY
100 AM EDT MON MAR 30 2015

NOTE: "FAIR" INDICATES FEW OR NO CLOUDS BELOW 12,000 FEET WITH
NO SIGNIFICANT WEATHER AND/OR OBSTRUCTIONS TO VISIBILITY.

* THESE REPORTS ARE NOT UNDER NWS QUALITY CONTROL AND MAY NOT
  REPORT WEATHER SUCH AS PRECIPITATION AND FOG.

KYZ079-080-083-085-087-088-110-112-115-119-120-300600
...EASTERN KENTUCKY...

CITY           SKY/WX    TMP DP  RH WIND       PRES   REMARKS
JACKSON        CLOUDY    52  24  33 SW10G20   30.02S
LONDON         CLOUDY    54  25  32 SW15G21   30.06F
SOMERSET*      CLOUDY    54  32  43 SW16G23   30.08F
MONTICELLO*    CLOUDY    55  35  46 SW13      30.10S
MIDDLESBORO*   MOCLDY    55  29  37 S9G16     30.09F
HAZARD APT*    CLOUDY    54  25  32 SW10G16   30.03S
BLACK MTN*       N/A     41  27  56 S28         N/A
PIKEVILLE APT* CLOUDY    50  19  29 SW6       30.00F
BIG SANDY*     CLOUDY    52  19  26 SW6       30.00S
MOREHEAD APT*  CLOUDY    54  25  32 SW12G18   30.02R
$$

KYZ035-036-041-042-044-050-067-078-099-300600
...CENTRAL KENTUCKY...

CITY           SKY/WX    TMP DP  RH WIND       PRES   REMARKS
MT STERLING*   LGT RAIN  50  32  50 W9G16     30.03R
FLEMING/MASON* CLOUDY    43  34  70 CALM      30.01S
DANVILLE*      LGT RAIN  52  37  58 SW15G24   30.05R
RICHMOND*      CLOUDY    54  32  43 SW16G23   30.03S
LEXINGTON      LGT RAIN  52  38  58 SW16G31   30.03R
FRANKFORT      CLOUDY    51  40  65 SW7       30.01R
$$

KYZ091>093-OHZ055-061-077-WVZ005-015-034-035-042-300600
...SOUTHERN OHIO/WEST VIRGINIA...

CITY           SKY/WX    TMP DP  RH WIND       PRES   REMARKS
COVINGTON      CLOUDY    46  39  76 SW12      29.96F
COLUMBUS       CLOUDY    43  37  79 SW10      29.92F
DAYTON         LGT RAIN  44  37  76 SW17      29.92F
WILMINGTON     CLOUDY    42  35  76 SW12      29.93F
HUNTINGTON     LGT RAIN  49  25  39 W6        29.99R
CHARLESTON     LGT RAIN  52  12  20 SW6       29.97F
PINEVILLE*     CLOUDY    43  28  56 MISG      30.06F
BECKLEY        CLOUDY    45   9  23 S6        30.00F
BLUEFIELD      MOCLDY    47  14  26 W9        30.02F
$$

VAZ002-007-008-TNZ017-027-036-066-071-300600
...SOUTHWEST VIRGINIA/EAST TENNESSEE...

CITY           SKY/WX    TMP DP  RH WIND       PRES   REMARKS
WISE*          CLOUDY    48  19  32 SW22G29   30.05S
JONESVILLE*    MOCLDY    39  28  65 CALM      30.11F
ABINGDON*      CLOUDY    46  17  31 N5        30.08S
BRISTOL        PTCLDY    43  25  49 CALM      30.10S
KNOXVILLE      CLEAR     53  25  33 SW16      30.12R
OAK RIDGE      MOCLDY    55  26  32 CALM      30.14F
CROSSVILLE     CLOUDY    52  31  44 VRB6      30.12F
NASHVILLE      LGT RAIN  54  41  61 S6        30.08F
$$

...KEY TO REMARKS...
VSB - VISIBILITY IN MILES
WCI - WIND CHILL INDEX
HX  - HEAT INDEX

$$


USA.gov is the U.S. government's official web portal to all federal, state and local government web resources and services.